User: anonymous   Login
Location: Beekmeers
(50.8953°N, 3.6968°E)
Time: 19:54:07
(UTC+00:00)
Language:

Resurs 1-4 Rocket - Orbit

View from above orbital plane
View from above orbital plane
View from above satellite
View from above satellite

Ground track
Ground track

The orbit data is extracted from the following two-line orbital elements,

1 25400U 98043G   24206.73569964  .00000223  00000-0  11247-3 0  9993
2 25400  98.7454 147.7104 0008874 299.0480  60.9811 14.25773466354487
Epoch (UTC): 24 July 2024 17:39:24
Eccentricity: 0.0008874
inclination: 98.7454°
perigee height: 799 km
apogee height: 812 km
right ascension of ascending node: 147.7104°
argument of perigee: 299.0480°
revolutions per day: 14.25773466
mean anomaly at epoch: 60.9811°
orbit number at epoch: 35448

The dashed part of the orbit path shows where the satellite is in the earth's shadow,  

DLR